Regional Weather Roundup
Issued by NWS Jackson, KY

Home | Current Version | Previous Version | Graphics & Text | Print | Product List | Glossary On
Versions: 1 2 3 4 5 6 7 8 9 10 11 12 13 14 15 16 17 18 19 20 21 22 23 24 25 26 27 28 29 30 31 32 33 34 35 36 37 38 39 40 41 42 43 44 45 46 47 48 49
000
ASUS43 KJKL 021710
RWRJKL

EAST KENTUCKY HOURLY WEATHER ROUNDUP
NATIONAL WEATHER SERVICE JACKSON KY
100 PM EDT THU JUL 02 2015

NOTE: "FAIR" INDICATES FEW OR NO CLOUDS BELOW 12,000 FEET WITH
NO SIGNIFICANT WEATHER AND/OR OBSTRUCTIONS TO VISIBILITY.

* THESE REPORTS ARE NOT UNDER NWS QUALITY CONTROL AND MAY NOT
  REPORT WEATHER SUCH AS PRECIPITATION AND FOG.

KYZ079-080-083-085-087-088-110-112-115-119-120-021800
...EASTERN KENTUCKY...

CITY           SKY/WX    TMP DP  RH WIND       PRES   REMARKS
JACKSON        RAIN      67  66  97 MISG      29.95F VSB 1/4
LONDON         PTSUNNY   74  65  73 S5        29.94F
MONTICELLO*    PTSUNNY   76  69  79 CALM      29.97R
HAZARD APT*    HVY RAIN  68  68 100 CALM      29.96F
BLACK MTN*       N/A     61  61 100 SW2         N/A
PIKEVILLE APT* LGT RAIN  66  66 100 CALM      29.96F
MOREHEAD APT*  LGT RAIN  68  66  94 S6        29.94F
$$

KYZ035-036-041-042-044-050-067-078-099-021800
...CENTRAL KENTUCKY...

CITY           SKY/WX    TMP DP  RH WIND       PRES   REMARKS
LEXINGTON      CLOUDY    72  68  87 SW3       29.91F
FRANKFORT      PTSUNNY   75  69  81 S5        29.88F
$$

KYZ091>093-OHZ055-061-077-WVZ005-015-034-035-042-021800
...SOUTHERN OHIO/WEST VIRGINIA...

CITY           SKY/WX    TMP DP  RH WIND       PRES   REMARKS
COVINGTON      CLOUDY    72  67  84 SE6       29.90F HAZE
COLUMBUS       CLOUDY    69  60  73 SE3       29.95S
DAYTON         CLOUDY    74  64  71 E10       29.94F
WILMINGTON     CLOUDY    69  65  86 E6        29.92F FOG
HUNTINGTON     LGT RAIN  66  65  96 SE7       29.93S FOG
CHARLESTON     LGT RAIN  71  67  87 VRB5      29.94F FOG
BECKLEY        LGT RAIN  67  61  81 CALM      30.01F
BLUEFIELD      LGT RAIN  67  63  87 CALM      30.03S FOG
$$

VAZ002-007-008-TNZ017-027-036-066-071-021800
...SOUTHWEST VIRGINIA/EAST TENNESSEE...

CITY           SKY/WX    TMP DP  RH WIND       PRES   REMARKS
BRISTOL        LGT RAIN  70  67  90 SW14      29.98F
KNOXVILLE      CLOUDY    71  66  84 S10       29.98S
OAK RIDGE      LGT RAIN  70  67  90 VRB5      30.00R
CROSSVILLE     LGT RAIN  70  66  87 VRB3      30.00F
NASHVILLE      PTSUNNY   76  72  87 S9        29.93F
$$

...KEY TO REMARKS...
VSB - VISIBILITY IN MILES
WCI - WIND CHILL INDEX
HX  - HEAT INDEX

$$



USA.gov is the U.S. government's official web portal to all federal, state and local government web resources and services.